Date,TemperatureHighF,TemperatureAvgF,TemperatureLowF,DewpointHighF,DewpointAvgF,DewpointLowF,HumidityHigh,HumidityAvg,HumidityLow,PressureMaxIn,PressureMinIn,WindSpeedMaxMPH,WindSpeedAvgMPH,GustSpeedMaxMPH,PrecipitationSumIn
2013-2-1,69,56,46,45,38,32,77,54,33,30.30,30.20,14,4,18,0.00
2013-2-2,78,60,48,55,46,38,90,61,37,30.26,30.10,9,2,13,0.00
2013-2-3,71,60,50,56,45,32,90,62,24,30.20,30.06,8,3,15,0.00
2013-2-4,73,59,46,53,45,35,96,67,26,30.14,30.01,7,1,9,0.00
2013-2-5,78,64,49,61,53,43,90,70,45,30.07,29.98,7,1,10,0.00
2013-2-6,83,69,57,65,60,54,92,76,50,30.10,30.00,7,1,11,0.00
2013-2-7,82,71,61,66,64,60,96,79,55,30.05,29.91,10,2,17,0.00
2013-2-8,80,72,62,69,63,54,95,77,42,30.05,29.88,12,5,16,0.00
2013-2-9,82,67,57,64,59,55,97,78,48,30.15,30.03,10,3,16,0.00
2013-2-10,82,68,61,64,61,58,90,79,53,30.20,30.11,4,1,10,0.00
2013-2-11,83,69,61,67,63,59,95,82,58,30.18,30.06,9,2,12,0.00
2013-2-12,82,78,69,71,70,67,93,75,67,30.08,29.95,14,5,17,0.00
2013-2-13,82,74,68,74,70,67,97,88,75,29.98,29.93,15,4,17,0.00
2013-2-15,64,63,62,62,61,61,95,94,90,29.96,29.93,0,0,0,0.01
2013-2-16,67,61,56,62,53,43,95,75,58,30.08,29.90,18,5,28,0.01
2013-2-17,58,50,43,44,30,22,64,47,29,30.31,30.09,15,5,22,0.00
2013-2-18,74,56,41,51,40,26,84,58,40,30.32,30.19,9,2,14,0.00
2013-2-19,78,63,53,65,57,50,95,84,59,30.19,30.07,6,1,10,0.00
2013-2-20,84,69,57,65,60,56,98,76,39,30.09,29.97,7,1,10,0.00
2013-2-21,83,71,61,69,64,60,97,82,56,30.07,29.98,8,2,12,0.00
2013-2-22,85,72,63,72,67,62,97,84,58,30.07,29.97,9,2,15,0.00
2013-2-23,84,74,68,73,70,67,97,87,65,30.01,29.90,15,3,20,0.00
2013-2-24,83,74,68,73,70,67,97,88,67,29.98,29.88,9,2,14,0.01
2013-2-25,84,74,66,73,69,65,98,85,65,29.91,29.78,11,2,16,0.01
2013-2-26,84,75,67,74,71,65,95,86,71,29.88,29.74,17,4,27,0.00
2013-2-27,76,68,64,65,63,58,97,85,64,29.97,29.85,6,2,11,0.01
2013-2-28,71,64,60,60,56,54,88,77,55,30.01,29.90,11,3,16,0.00